Puto Island — XUTS7 — position and weather

sailwx.info

Track history (hours):
 
Tides and Currents Weather Stations Pressure Air Temp Water Temp Dewpoint Dewpoint Depression Visibility Wind Speed Wind Dir Waves Ship Positions

Puto Island

Last reported at 2014-Oct-28 22:21 UTC. Time now 2014-Oct-31 06:57 UTC.
Position N 31°20' E 121°41'.

Length 71 m; draft 3.9 m.

Type: Cargo ship. MMSI: 514198000.

Date/timePositionNaut miles runAvg speedWind from/ knotsBaromVisibWave heightAir tempDewpointWater temp
2014-Oct-28 22:21N 31°20' E 121°41'911.0
2014-Oct-28 21:33N 31°24' E 121°32'3 2.5
2014-Oct-28 20:33N 31°22' E 121°30'0 0.0
2014-Oct-28 19:32N 31°22' E 121°30'0 0.0
2014-Oct-28 18:32N 31°22' E 121°30'0 0.0
2014-Oct-28 17:32N 31°22' E 121°30'0 0.0
2014-Oct-28 16:20N 31°22' E 121°30'0 0.0
2014-Oct-28 15:32N 31°22' E 121°30'0 0.0
2014-Oct-28 13:32N 31°22' E 121°30'0 0.0
2014-Oct-28 12:20N 31°22' E 121°30'0 0.0
2014-Oct-28 11:32N 31°22' E 121°30'0 0.0
2014-Oct-28 10:34N 31°22' E 121°30'3 2.9
2014-Oct-28 09:34N 31°24' E 121°32'6 5.8
2014-Oct-28 08:32N 31°22' E 121°39'91 2.1
2014-Oct-26 13:16N 30°06' E 122°37'  
2014-Oct-22 14:33N 33°40' E 130°10'9 9.4
2014-Oct-22 13:33N 33°46' E 130°18'238 8.8
2014-Oct-21 10:32N 34°38' E 134°59'1111.0
2014-Oct-21 09:33N 34°36' E 135°12'10 9.8
2014-Oct-21 08:33N 34°38' E 135°23'2 0.3
2014-Oct-21 01:24N 34°39' E 135°25'0 0.0
2014-Oct-21 00:30N 34°39' E 135°25'0 0.0
2014-Oct-20 04:18N 34°39' E 135°25'0 0.0
2014-Oct-20 03:30N 34°39' E 135°25'0 0.0
2014-Oct-20 02:12N 34°39' E 135°25'0 0.0
2014-Oct-20 01:30N 34°39' E 135°25'0 0.0
2014-Oct-20 00:24N 34°39' E 135°25'0 0.0
2014-Oct-19 23:30N 34°39' E 135°25'0 0.0
2014-Oct-19 22:30N 34°39' E 135°25'3 2.9
2014-Oct-19 21:33N 34°37' E 135°23'0 0.0
2014-Oct-19 20:16N 34°37' E 135°23'0 0.0
2014-Oct-19 19:16N 34°37' E 135°23'0 0.0
2014-Oct-19 18:28N 34°37' E 135°23'0 0.0
2014-Oct-19 17:22N 34°37' E 135°23'0 0.0
2014-Oct-19 16:22N 34°37' E 135°23'0 0.0
2014-Oct-19 15:28N 34°37' E 135°23'0 0.0
2014-Oct-19 14:28N 34°37' E 135°23'0 0.0
2014-Oct-19 13:28N 34°37' E 135°23'0 0.0
2014-Oct-19 12:16N 34°37' E 135°23'0 0.0
2014-Oct-19 11:22N 34°37' E 135°23'0 0.0
2014-Oct-19 10:16N 34°37' E 135°23'0 0.1
2014-Oct-19 08:28N 34°37' E 135°24'0 0.0
2014-Oct-19 07:16N 34°37' E 135°24'0 0.0
2014-Oct-19 05:28N 34°37' E 135°24'0 0.1
2014-Oct-19 04:28N 34°37' E 135°24'0 0.0
2014-Oct-19 03:28N 34°37' E 135°24'0 0.0
2014-Oct-19 02:28N 34°37' E 135°23'0 0.0
2014-Oct-19 01:28N 34°37' E 135°23'0 0.0
2014-Oct-19 00:28N 34°37' E 135°23'0 0.0
2014-Oct-18 23:33N 34°37' E 135°23'1 0.6
2014-Oct-18 22:32N 34°37' E 135°23'  
Track history (hours):
 
Tides and Currents Weather Stations Pressure Air Temp Water Temp Dewpoint Dewpoint Depression Visibility Wind Speed Wind Dir Waves Ship Positions

Puto Island

Last reported at 2014-Oct-28 22:21 UTC. Time now 2014-Oct-31 06:57 UTC.
Position N 31°20' E 121°41'.

Length 71 m; draft 3.9 m.

Type: Cargo ship. MMSI: 514198000.

Date/timePositionNaut miles runAvg speedWind from/ knotsBaromVisibWave heightAir tempDewpointWater temp
2014-Oct-28 22:21N 31°20' E 121°41'911.0
2014-Oct-28 21:33N 31°24' E 121°32'3 2.5
2014-Oct-28 20:33N 31°22' E 121°30'0 0.0
2014-Oct-28 19:32N 31°22' E 121°30'0 0.0
2014-Oct-28 18:32N 31°22' E 121°30'0 0.0
2014-Oct-28 17:32N 31°22' E 121°30'0 0.0
2014-Oct-28 16:20N 31°22' E 121°30'0 0.0
2014-Oct-28 15:32N 31°22' E 121°30'0 0.0
2014-Oct-28 13:32N 31°22' E 121°30'0 0.0
2014-Oct-28 12:20N 31°22' E 121°30'0 0.0
2014-Oct-28 11:32N 31°22' E 121°30'0 0.0
2014-Oct-28 10:34N 31°22' E 121°30'3 2.9
2014-Oct-28 09:34N 31°24' E 121°32'6 5.8
2014-Oct-28 08:32N 31°22' E 121°39'91 2.1
2014-Oct-26 13:16N 30°06' E 122°37'  
2014-Oct-22 14:33N 33°40' E 130°10'9 9.4
2014-Oct-22 13:33N 33°46' E 130°18'238 8.8
2014-Oct-21 10:32N 34°38' E 134°59'1111.0
2014-Oct-21 09:33N 34°36' E 135°12'10 9.8
2014-Oct-21 08:33N 34°38' E 135°23'2 0.3
2014-Oct-21 01:24N 34°39' E 135°25'0 0.0
2014-Oct-21 00:30N 34°39' E 135°25'0 0.0
2014-Oct-20 04:18N 34°39' E 135°25'0 0.0
2014-Oct-20 03:30N 34°39' E 135°25'0 0.0
2014-Oct-20 02:12N 34°39' E 135°25'0 0.0
2014-Oct-20 01:30N 34°39' E 135°25'0 0.0
2014-Oct-20 00:24N 34°39' E 135°25'0 0.0
2014-Oct-19 23:30N 34°39' E 135°25'0 0.0
2014-Oct-19 22:30N 34°39' E 135°25'3 2.9
2014-Oct-19 21:33N 34°37' E 135°23'0 0.0
2014-Oct-19 20:16N 34°37' E 135°23'0 0.0
2014-Oct-19 19:16N 34°37' E 135°23'0 0.0
2014-Oct-19 18:28N 34°37' E 135°23'0 0.0
2014-Oct-19 17:22N 34°37' E 135°23'0 0.0
2014-Oct-19 16:22N 34°37' E 135°23'0 0.0
2014-Oct-19 15:28N 34°37' E 135°23'0 0.0
2014-Oct-19 14:28N 34°37' E 135°23'0 0.0
2014-Oct-19 13:28N 34°37' E 135°23'0 0.0
2014-Oct-19 12:16N 34°37' E 135°23'0 0.0
2014-Oct-19 11:22N 34°37' E 135°23'0 0.0
2014-Oct-19 10:16N 34°37' E 135°23'0 0.1
2014-Oct-19 08:28N 34°37' E 135°24'0 0.0
2014-Oct-19 07:16N 34°37' E 135°24'0 0.0
2014-Oct-19 05:28N 34°37' E 135°24'0 0.1
2014-Oct-19 04:28N 34°37' E 135°24'0 0.0
2014-Oct-19 03:28N 34°37' E 135°24'0 0.0
2014-Oct-19 02:28N 34°37' E 135°23'0 0.0
2014-Oct-19 01:28N 34°37' E 135°23'0 0.0
2014-Oct-19 00:28N 34°37' E 135°23'0 0.0
2014-Oct-18 23:33N 34°37' E 135°23'1 0.6
2014-Oct-18 22:32N 34°37' E 135°23'  

Dump ship's entire track history